Temp
14 14 14 14 14 14 14 13 13 14 14 14 14 14 15 16 16 17 17 16 16 16 16 16 16 16 16 16 16 16 16 16 15 15 15 15 15 15 15 15 15 15 15 15 15 15 15 15 14 14 14 14 14 14 14 14 14 14 14 14 14 14 14 13 13 13 13 13 13
14 14 14 14 14 14 14 13 13 13 14 14 14 14 15 16 17 17 16 16 16 16 16 16 16 16 16 16 16 16 16 16 16 15 15 15 15 15 15 15 15 15 15 15 15 15 15 15 15 14 14 14 14 14 14 14 14 14 14 14 14 14 14 13 13 13 13 13 13
13 13 13 14 14 14 13 13 13 13 14 14 14 14 15 16 16 16 16 16 16 16 16 16 16 16 16 16 16 16 16 16 16 15 15 15 15 15 15 15 15 15 15 15 15 15 15 15 15 14 14 14 14 14 14 14 14 14 14 14 14 14 13 13 13 13 13 13 13
13 13 13 13 13 13 13 13 13 13 13 13 14 14 15 16 16 16 16 16 16 16 16 16 16 16 16 16 16 16 16 16 16 15 15 15 15 15 15 15 15 15 15 15 15 15 15 15 15 14 14 14 14 14 14 14 14 14 14 14 13 13 13 13 14 14 13 13 14
13 13 13 13 13 13 13 13 13 13 13 13 13 14 15 16 16 16 16 16 16 16 16 16 16 16 16 16 16 16 16 16 16 15 15 15 15 15 15 15 15 15 15 15 15 15 15 15 14 14 14 14 14 14 14 14 14 14 14 14 13 13 13 13 14 14 14 13 13
13 13 13 13 13 13 13 13 13 13 13 13 13 14 15 16 16 16 16 16 16 16 16 16 16 16 16 16 16 16 16 16 16 15 15 15 15 15 15 15 15 15 15 15 15 15 15 14 14 14 14 14 14 14 14 14 14 14 14 14 13 13 13 13 13 14 13 13 13
13 13 13 13 13 13 13 13 13 13 13 13 13 14 15 16 16 16 16 16 16 16 16 16 16 16 16 16 16 16 16 16 16 16 15 15 15 15 15 15 15 15 15 15 15 15 14 14 14 14 14 14 14 14 14 14 14 14 14 14 13 13 13 13 13 13 13 13 13
12 12 13 13 13 13 13 13 13 13 13 13 13 14 15 16 16 16 16 16 16 16 16 16 16 16 16 16 16 16 16 15 16 15 15 15 15 15 15 15 15 15 15 15 15 15 14 14 14 14 14 14 14 14 14 14 14 14 14 14 13 13 13 13 13 13 13 13 13
12 12 12 12 13 13 13 13 13 13 13 13 13 14 15 16 16 16 16 16 16 16 16 16 16 16 16 16 16 16 16 15 15 15 15 15 15 15 15 15 15 15 15 15 15 14 14 14 14 14 14 14 14 14 14 14 14 14 14 14 13 13 13 13 13 13 13 13 13
12 12 12 12 12 13 13 13 14 14 14 14 14 14 15 16 16 16 16 16 16 16 16 16 16 16 16 16 16 16 16 15 15 15 15 15 15 15 15 15 15 15 15 14 14 14 14 14 14 14 14 14 14 14 14 14 14 14 14 14 14 13 13 13 13 13 13 13 13
12 12 12 12 12 12 13 13 14 15 15 15 14 14 15 16 16 16 16 16 16 16 16 16 16 16 16 16 16 16 16 15 15 15 15 15 15 15 15 15 15 15 15 14 14 14 14 14 14 14 14 14 14 14 14 14 14 14 14 14 14 14 13 13 13 13 13 13 13
12 12 12 12 12 12 13 13 14 15 15 14 14 15 16 16 16 16 16 16 16 16 16 16 16 16 16 16 16 16 15 15 15 15 15 15 15 15 15 15 15 15 15 14 14 14 14 14 14 14 14 14 14 14 14 14 14 14 14 14 14 14 13 13 13 13 13 13 13
12 12 12 12 12 12 13 14 15 15 15 14 15 15 16 16 16 16 16 16 16 16 16 16 16 16 16 16 16 16 15 15 15 15 15 15 15 15 15 15 15 15 15 15 14 14 14 14 14 14 14 14 14 14 14 14 13 14 14 14 14 14 13 13 13 13 13 13 13
12 12 12 12 12 13 14 14 15 15 14 14 15 16 16 16 16 16 16 16 16 16 16 16 16 16 16 16 16 16 15 15 15 15 15 15 15 15 15 15 15 15 15 15 15 14 14 14 14 14 14 14 14 14 14 13 13 13 14 14 14 14 13 13 13 13 13 13 13
12 12 12 12 13 13 14 14 15 14 14 15 16 16 16 16 16 16 16 16 16 16 16 16 16 16 16 16 16 16 16 15 15 15 15 15 15 15 15 15 15 15 15 15 15 15 14 14 14 14 14 14 14 14 14 13 13 13 13 14 14 14 13 13 13 13 13 13 13
13 13 13 13 13 14 14 14 14 14 14 15 16 16 16 16 16 16 16 16 16 16 16 16 16 16 16 16 16 16 16 15 15 15 15 15 15 15 15 15 15 15 15 15 15 15 14 14 14 14 14 14 14 14 14 14 14 13 13 14 14 14 13 13 13 13 13 13 13
13 13 13 13 13 14 14 14 14 14 15 15 16 16 16 16 16 16 16 16 16 16 16 16 16 16 16 16 16 16 16 15 15 15 15 15 15 15 15 15 15 15 15 15 15 14 14 14 14 14 14 14 14 14 14 14 14 14 13 13 14 14 14 13 13 13 13 13 13
13 13 13 13 13 14 14 14 14 14 15 16 16 16 16 16 16 16 16 16 16 16 16 16 16 16 16 16 16 16 16 15 15 15 15 15 15 15 15 15 15 15 15 15 14 14 14 14 14 14 14 14 14 14 14 14 14 14 13 13 13 14 14 13 13 13 13 13 13
13 13 13 13 13 14 14 14 14 14 15 16 16 16 16 16 16 16 16 16 16 16 16 16 16 16 16 16 16 15 15 15 15 15 15 15 15 15 15 15 15 15 15 15 14 14 14 14 14 14 14 14 14 14 14 14 14 14 14 13 13 13 14 13 13 13 13 13 13
13 13 13 13 14 14 14 14 14 15 15 16 16 16 16 16 16 16 16 16 16 16 16 16 16 16 16 16 16 15 15 15 15 15 15 15 15 15 15 15 15 15 15 15 14 14 14 14 14 14 14 14 14 14 14 14 14 14 14 14 13 13 14 13 13 13 13 13 13
13 13 13 14 14 14 14 14 15 15 16 16 16 16 16 16 16 16 16 16 16 16 16 16 16 16 16 16 16 16 15 15 15 15 15 15 15 15 15 15 15 15 15 15 15 15 15 14 14 14 14 14 14 14 14 14 14 14 14 14 14 14 13 13 13 13 13 13 13
14 14 14 14 14 14 14 14 15 15 15 15 15 15 15 15 15 15 15 16 16 16 16 16 15 15 15 15 15 15 15 15 14 15 15 15 15 15 15 15 15 15 15 15 15 15 15 15 14 14 14 14 14 14 14 14 14 14 14 14 14 14 14 13 13 13 13 13 13
14 14 14 14 14 14 14 14 15 15 15 15 14 14 14 14 14 14 14 15 15 15 15 15 14 14 14 14 14 14 14 14 14 14 14 14 14 15 15 15 15 15 15 15 15 14 14 14 14 14 14 14 14 14 14 14 14 14 14 14 14 14 14 13 13 13 13 13 13
14 14 14 14 14 14 14 14 14 14 14 14 14 14 14 14 14 14 14 14 14 13 13 13 13 13 14 14 14 13 13 13 13 14 14 14 14 14 14 15 14 14 14 14 14 14 14 14 14 14 14 14 14 14 14 14 14 14 14 14 14 14 13 13 13 13 13 13 13
14 14 14 14 14 14 14 13 13 13 13 13 14 14 14 13 13 13 13 13 13 12 12 12 12 12 13 13 13 13 13 13 13 13 13 13 13 13 13 13 13 14 14 14 14 14 14 14 14 14 14 14 14 14 14 14 14 14 14 14 14 14 13 13 13 13 13 13 13
14 14 14 14 14 14 13 13 13 13 13 13 13 13 12 12 12 12 11 11 11 11 11 11 11 11 12 12 12 12 12 12 12 12 12 12 12 12 12 13 13 13 13 14 14 14 14 14 14 14 14 14 14 14 14 14 14 14 14 14 14 14 13 13 13 13 13 13 13
14 14 14 14 14 13 13 13 13 12 12 12 12 11 11 11 11 11 11 10 10 11 11 11 11 11 11 11 11 11 11 11 11 11 12 12 12 12 12 12 13 13 13 14 14 14 14 14 14 14 14 14 14 14 14 14 14 14 14 14 14 14 14 13 13 13 13 13 13
13 13 13 13 13 12 12 12 11 11 11 11 10 10 10 10 10 10 10 10 10 10 10 10 10 10 10 10 10 10 10 10 11 11 11 11 11 12 12 12 12 12 13 13 14 14 14 14 14 14 14 14 14 14 14 13 13 13 13 13 13 13 13 13 13 13 13 13 13
13 13 12 12 11 11 11 11 10 10 10 10 9 9 9 9 9 9 9 9 9 9 8 8 9 9 9 9 9 10 10 10 10 10 10 10 11 11 11 11 11 12 12 12 13 13 14 14 14 14 14 14 14 14 13 13 13 12 12 12 12 12 13 13 13 13 13 13 13
12 11 11 11 10 10 10 10 9 9 9 9 9 9 9 9 9 9 8 8 7 7 7 8 8 9 9 9 9 9 9 9 9 9 10 10 10 10 9 10 10 11 11 12 12 12 12 13 14 14 14 14 14 13 13 12 12 12 11 11 11 11 11 11 11 11 12 12 12
11 10 10 10 10 9 9 9 9 9 8 8 8 8 8 8 7 7 7 6 6 6 7 8 9 9 8 8 8 8 8 8 8 8 9 9 8 8 8 9 9 9 10 11 12 12 12 12 13 13 14 14 13 12 11 11 10 10 10 10 10 10 10 10 9 9 9 10 10
10 10 10 9 9 9 8 8 8 8 8 8 8 7 7 6 6 6 6 6 6 7 8 8 8 7 7 7 7 7 7 7 7 7 7 7 7 7 7 7 8 8 9 10 11 11 12 12 12 12 13 12 12 11 10 10 9 8 8 8 8 8 8 8 7 7 7 8 8
9 9 9 8 8 8 7 7 7 7 7 7 7 6 6 6 5 5 5 6 6 7 7 7 6 5 5 5 6 6 6 6 6 6 6 6 6 6 6 6 6 7 7 8 9 10 10 11 11 11 11 11 10 9 9 8 7 7 6 6 6 5 5 5 5 6 6 6 6
8 8 8 8 7 7 7 7 7 7 7 6 6 5 5 5 5 5 5 5 5 5 5 5 4 4 4 4 5 5 5 5 5 5 5 5 6 6 5 5 5 5 6 7 8 8 9 9 10 10 10 10 9 8 7 7 6 6 5 4 4 4 4 4 4 5 5 5 5
8 8 8 7 7 7 7 7 7 7 6 5 5 5 5 5 4 4 4 4 4 4 4 3 3 3 3 3 4 4 4 4 4 4 4 4 4 4 3 3 3 4 5 5 6 7 8 8 9 9 9 8 7 6 6 5 5 4 3 3 3 3 3 3 3 3 4 4 4
8 8 7 7 7 7 6 6 6 6 5 5 4 4 4 4 3 3 3 4 4 4 3 3 3 3 3 3 3 3 3 2 2 2 3 3 3 3 2 2 2 3 4 5 5 6 7 7 8 8 8 7 6 5 4 4 3 2 2 2 2 2 2 2 2 2 2 3 3
8 7 7 7 6 6 5 5 5 5 4 4 3 3 3 3 3 3 3 4 4 3 3 2 2 2 2 2 1 1 2 2 2 2 2 2 2 2 2 2 2 2 3 4 5 6 6 7 7 7 7 6 5 4 3 2 2 1 1 1 0 0 1 1 1 1 1 2 2
7 7 6 6 5 5 5 4 4 4 3 3 2 2 2 2 2 2 3 3 3 2 2 2 1 1 1 1 1 1 1 1 1 1 1 1 1 1 1 1 1 2 3 3 4 5 6 6 6 6 6 5 4 3 2 1 1 0 -0 -0 -1 -0 -0 -0 0 0 0 1 1
6 6 6 5 5 4 4 4 3 3 2 2 2 2 2 2 2 2 2 2 2 2 1 1 0 -0 -0 0 0 0 0 0 1 1 0 0 1 1 1 1 1 1 2 3 4 4 5 5 5 5 5 5 4 3 2 1 -0 -1 -1 -1 -1 -1 -1 -1 -1 -1 -1 -0 0
5 5 5 5 4 4 4 3 3 2 2 2 2 2 1 1 1 1 2 2 1 1 0 -0 -0 -0 -0 -0 -0 -0 -1 -0 -0 -0 -0 -0 0 1 1 1 1 1 2 2 3 4 4 4 4 4 5 4 3 2 1 1 -0 -1 -2 -2 -2 -2 -2 -2 -2 -2 -1 -1 -0
5 4 4 4 4 3 3 3 2 2 2 2 1 1 1 1 1 1 1 1 0 -0 -0 -1 -1 -1 -1 -1 -1 -1 -1 -1 -1 -1 -1 -0 -0 0 1 1 1 1 1 1 2 3 3 3 4 4 4 3 3 2 1 0 -1 -2 -2 -3 -3 -3 -3 -3 -2 -2 -2 -2 -1
Height
653 654 656 657 658 660 662 663 665 667 667 666 666 666 666 665 666 667 668 668 670 672 674 676 678 681 684 687 689 692 695 698 700 703 705 707 709 711 713 715 717 719 721 723 725 727 730 732 733 735 736 738 739 741 742 743 745 746 747 748 750 751 752 753 755 756 758 759 760
652 654 655 657 658 659 661 662 664 666 667 667 667 668 667 667 666 666 667 669 670 672 674 677 679 682 684 687 690 692 695 697 700 702 705 707 709 711 713 715 717 719 721 722 725 727 729 731 732 734 735 737 738 740 741 742 744 745 746 747 748 749 751 752 753 755 757 758 760
652 654 655 656 657 659 660 662 663 664 666 668 670 670 669 668 667 667 668 669 671 673 675 677 679 682 684 687 690 693 695 697 700 702 704 707 709 711 713 715 717 718 720 722 724 726 728 730 732 733 734 736 737 738 740 741 743 744 745 746 747 748 749 751 752 755 756 758 759
652 653 654 656 657 658 659 661 662 663 666 670 672 673 671 669 668 667 668 670 672 674 675 677 680 682 685 687 690 693 695 697 700 702 704 707 709 711 712 714 716 718 720 722 723 725 727 729 731 732 733 734 736 737 738 740 742 743 744 745 746 747 748 750 752 754 756 757 759
651 652 653 655 656 657 659 660 662 664 667 671 675 674 671 669 668 668 669 670 672 674 676 677 680 682 685 688 690 693 696 698 700 702 704 706 708 710 712 714 716 717 719 721 723 724 726 728 730 731 732 733 734 736 737 739 741 742 743 744 745 746 747 749 751 753 754 756 757
651 652 653 654 655 657 658 661 662 664 667 671 675 673 669 668 668 668 670 671 672 674 676 678 680 683 686 688 691 693 696 698 700 702 704 706 708 710 712 714 715 717 718 720 722 724 725 727 728 730 731 732 733 735 737 738 740 741 742 743 744 745 747 748 750 752 753 755 756
650 652 653 654 655 657 658 660 662 664 667 670 673 672 669 667 668 669 670 671 673 675 677 679 681 683 686 688 691 693 695 697 700 702 704 706 708 710 712 713 715 716 718 720 722 723 725 726 727 728 730 731 732 734 736 737 739 740 741 742 743 744 746 747 749 751 752 754 755
650 652 653 654 655 657 658 660 662 663 665 668 672 672 669 668 668 669 671 672 674 676 677 679 681 683 686 688 691 693 695 697 700 702 704 706 708 709 711 713 714 716 718 719 721 723 724 726 727 727 729 730 732 734 735 737 738 739 740 741 742 743 745 747 748 750 751 752 754
651 652 653 654 655 657 658 660 661 662 663 666 670 671 669 668 669 670 672 673 674 676 678 680 682 684 686 688 691 693 695 697 700 702 704 706 707 709 711 712 714 716 717 719 721 722 724 725 726 727 728 730 732 733 735 736 737 738 739 740 741 742 744 746 747 748 750 751 752
651 652 653 654 655 657 658 660 661 661 662 665 669 670 669 668 669 671 672 673 675 677 678 680 682 684 687 689 691 693 695 697 700 702 704 706 707 709 711 712 714 716 717 719 721 722 723 725 726 727 728 730 731 733 734 735 736 737 738 739 740 742 743 745 746 747 749 750 751
650 652 653 654 656 657 658 660 660 661 663 666 669 670 669 669 670 671 673 674 676 677 679 681 683 685 687 690 691 693 695 698 700 702 704 706 707 709 711 712 714 715 717 718 720 722 723 724 726 727 728 729 731 732 733 734 735 736 737 738 739 741 742 744 745 746 747 748 749
650 652 653 654 656 657 658 659 659 661 663 667 669 669 668 669 670 672 673 675 676 677 679 681 683 685 688 690 692 694 696 698 701 702 704 706 708 709 711 712 713 715 716 718 719 721 722 724 725 726 727 729 730 731 732 733 734 735 736 737 739 740 742 743 744 745 746 747 748
649 651 653 654 656 657 657 657 658 661 664 667 668 668 667 669 671 672 674 675 676 678 680 682 683 686 688 691 693 695 697 699 701 703 704 706 707 709 711 712 713 714 716 717 718 720 722 723 724 725 727 727 728 730 731 732 733 734 735 737 738 739 740 741 742 744 745 746 747
649 651 652 654 655 656 656 656 658 662 666 667 667 667 668 669 671 673 674 675 677 678 680 682 684 686 688 691 693 695 697 699 701 702 704 706 707 708 710 711 712 714 715 716 718 719 721 722 723 724 725 726 727 728 729 731 732 733 734 735 737 738 739 740 741 742 744 745 746
648 650 652 653 654 654 654 656 660 663 666 667 666 666 668 670 671 673 674 675 677 678 680 682 685 687 689 691 693 695 697 699 701 702 703 705 707 708 709 711 712 713 715 716 717 718 720 721 722 723 724 725 726 727 729 730 731 732 733 734 735 736 737 739 740 741 742 743 744
647 649 651 652 652 652 654 657 661 664 666 665 665 667 668 670 672 673 674 676 677 679 681 683 685 687 690 692 693 695 697 698 700 702 703 704 706 707 708 710 711 713 714 716 717 718 719 720 721 722 723 724 725 727 728 729 730 731 732 733 734 735 737 737 739 740 741 742 743
648 650 651 652 652 653 655 658 662 665 665 665 665 667 668 670 671 673 674 676 677 679 681 683 685 687 690 692 693 695 697 698 700 701 702 704 705 707 708 709 711 712 713 715 716 717 718 719 720 721 722 724 725 726 727 728 729 730 731 732 733 735 736 737 737 738 739 740 742
649 651 652 653 653 655 657 660 664 665 665 664 665 667 668 670 671 673 674 676 677 679 681 683 685 687 689 691 693 694 696 697 699 700 702 703 704 706 707 709 710 712 713 714 715 716 717 718 720 721 722 723 724 725 726 727 728 729 730 732 733 734 735 735 736 737 738 739 740
651 652 653 655 656 658 660 663 665 665 664 664 665 667 668 670 671 673 674 676 678 679 681 683 686 687 689 691 692 694 696 697 698 700 701 702 704 705 707 708 710 711 712 714 715 716 717 718 719 720 722 722 723 724 725 726 727 728 729 731 732 733 733 734 735 736 737 738 739
652 653 654 655 657 660 662 664 665 664 664 664 665 667 668 669 671 673 674 676 678 680 682 683 685 687 689 691 692 694 696 697 699 700 702 703 704 706 707 708 710 711 712 713 714 716 717 717 718 719 720 721 722 723 724 725 726 727 728 729 730 731 732 733 734 735 736 737 738
652 653 654 656 658 661 662 664 664 664 664 664 665 667 667 669 671 672 674 676 678 680 682 683 685 687 689 691 692 694 696 697 699 701 702 703 705 706 707 708 710 711 712 713 714 715 716 717 717 718 719 720 721 722 722 723 724 725 727 728 729 730 731 732 732 733 735 736 737
652 653 655 657 659 661 663 664 664 663 663 665 666 667 668 670 671 673 675 676 678 680 682 683 686 687 689 691 692 694 695 697 698 700 702 703 704 705 707 708 709 711 712 712 713 714 715 716 716 717 718 719 719 720 721 722 722 723 725 726 727 728 729 730 731 732 733 734 735
652 654 656 657 659 661 663 664 663 663 664 666 667 669 670 672 673 675 677 678 679 681 683 684 686 688 690 691 692 694 695 696 698 699 701 702 703 705 706 707 708 709 710 711 712 713 714 715 715 716 717 717 718 719 719 720 721 722 723 724 726 727 728 729 730 731 732 733 734
652 654 656 657 660 662 664 664 664 665 666 668 670 671 672 674 676 677 678 680 681 682 683 684 686 687 689 690 692 693 695 696 698 699 700 702 703 704 705 707 707 708 709 710 711 711 712 713 714 715 716 716 717 718 718 719 720 721 722 723 724 725 726 727 728 729 730 731 732
653 655 657 659 662 664 666 666 667 667 669 670 672 673 674 675 676 677 678 679 680 682 683 685 687 688 689 691 692 693 695 697 698 699 701 702 703 704 705 706 707 708 708 709 710 711 712 713 714 714 715 716 717 717 718 719 719 720 721 722 722 724 725 726 727 728 729 730 731
655 657 659 661 663 666 667 668 668 669 670 672 672 673 674 675 676 677 678 680 681 683 685 686 688 689 691 691 692 694 695 697 698 699 701 702 703 704 705 706 707 708 709 709 710 712 712 713 714 714 714 715 716 717 717 718 719 719 720 720 721 722 723 724 726 727 727 728 729
657 659 661 663 665 667 668 668 669 670 671 672 673 674 674 676 677 678 680 682 683 685 686 688 689 691 691 692 693 694 696 697 698 700 701 702 703 704 705 706 707 708 709 709 710 711 712 712 713 713 714 715 716 717 717 718 718 719 720 720 721 722 722 723 724 725 726 727 728
660 662 663 664 666 667 667 667 668 670 672 673 674 675 676 677 678 680 682 683 685 686 687 689 691 692 692 692 693 695 696 697 698 700 701 703 704 705 705 706 707 707 708 709 710 710 711 712 712 712 713 714 715 715 716 717 717 718 719 719 720 721 722 723 724 725 726 726 727
661 663 664 665 665 666 666 667 669 671 672 674 675 676 677 678 680 682 684 685 686 687 689 690 692 692 692 693 694 695 696 697 699 700 702 703 704 705 705 706 707 707 709 710 710 711 711 711 712 712 712 713 713 714 715 715 716 716 717 717 718 719 720 721 722 723 724 725 726
662 663 663 664 664 666 668 669 671 672 673 675 676 677 678 680 682 685 686 687 687 689 690 692 692 692 693 694 695 696 697 699 700 702 702 703 704 705 706 707 707 709 710 710 711 711 711 711 711 712 712 712 713 713 714 715 715 716 717 717 718 719 720 721 722 722 723 724 724
661 662 662 663 666 668 670 672 673 674 675 676 677 678 680 682 685 687 688 688 689 691 692 692 692 693 694 695 696 697 699 700 701 702 703 703 705 706 707 708 709 710 711 711 711 711 712 712 712 712 712 712 712 713 714 714 715 716 717 717 718 719 720 721 722 722 723 723 723
662 662 664 666 668 671 673 674 675 676 677 677 679 681 682 685 687 689 689 690 691 692 692 693 694 695 696 697 698 699 700 701 702 703 704 705 706 707 708 709 710 711 711 712 712 712 712 712 712 712 712 712 712 713 714 715 716 717 717 718 719 720 721 722 722 722 722 723 723
663 665 667 669 672 674 676 677 677 677 678 679 681 683 685 687 689 690 691 691 692 692 693 695 696 697 698 699 700 701 702 702 703 704 705 706 707 708 709 710 711 712 712 712 712 712 712 713 713 713 713 713 713 714 715 715 717 717 718 719 720 720 721 722 722 722 723 723 723
665 667 669 672 675 677 678 678 678 678 679 681 683 685 686 688 689 691 692 692 693 694 696 697 698 699 700 701 702 702 703 704 705 706 707 708 709 709 710 711 712 713 713 713 713 713 714 714 714 714 714 714 714 715 716 716 717 719 720 720 721 721 722 722 723 723 723 724 724
667 669 671 674 676 678 679 679 679 680 681 683 685 687 688 690 692 693 694 695 696 697 698 700 701 702 702 703 703 704 705 706 707 709 710 710 711 711 712 713 714 715 715 715 715 715 715 715 715 715 715 715 716 716 717 717 719 720 721 721 722 722 723 723 724 724 725 725 725
671 672 673 675 677 679 680 680 681 682 684 686 688 690 692 693 695 697 697 698 698 699 701 702 703 703 704 705 706 707 708 709 710 711 712 712 713 713 713 714 715 716 716 716 716 716 716 716 717 717 717 717 717 718 718 719 720 721 722 722 723 724 725 725 725 726 726 726 726
674 675 676 677 679 681 682 683 684 685 687 690 692 693 695 697 698 699 700 700 700 701 703 704 704 705 706 707 708 710 711 712 713 714 714 715 715 715 715 716 717 717 717 717 717 717 717 718 718 718 718 718 719 719 720 721 722 722 723 724 725 726 726 727 727 727 728 728 728
677 677 678 680 682 683 685 686 687 689 691 693 695 696 697 699 700 701 702 702 702 703 705 706 707 708 709 710 712 713 714 715 715 715 716 716 717 717 716 717 717 718 719 719 719 719 719 719 720 720 719 719 720 721 721 722 723 724 725 726 727 727 728 728 729 729 730 730 730
680 681 682 683 685 686 687 689 690 692 694 696 697 698 700 700 702 703 704 704 705 706 707 708 710 712 712 713 714 715 716 717 717 717 717 718 718 718 717 717 719 720 721 721 721 721 721 721 721 721 721 721 721 722 722 723 724 725 726 727 728 729 729 730 730 731 732 732 732
683 684 685 687 688 689 691 692 694 696 697 698 699 701 702 702 704 705 706 707 708 709 710 711 713 714 715 715 716 717 717 718 718 719 719 719 719 719 719 719 720 721 722 722 722 722 722 722 722 722 722 722 723 723 724 725 725 726 727 728 729 730 731 732 732 732 733 734 734
687 687 688 690 691 692 693 695 697 698 699 700 702 703 704 705 706 707 708 709 711 712 713 714 715 716 717 717 717 718 718 719 720 720 720 720 720 720 720 721 722 722 723 724 724 724 724 724 724 724 724 724 724 725 725 726 727 728 729 730 731 732 732 733 734 734 735 735 736
Wind_Speed
24 23 22 22 21 20 19 18 18 19 22 23 28 24 18 21 22 21 21 22 23 23 25 26 27 28 30 32 33 32 31 32 32 32 32 32 33 33 33 33 32 32 31 31 32 31 31 31 30 29 29 29 30 30 30 31 30 30 30 30 30 31 32 32 31 30 29 28 27
25 24 23 23 22 21 20 18 19 20 21 22 26 23 17 18 19 20 21 21 22 22 23 25 26 28 29 31 31 31 31 31 31 31 31 31 31 32 32 32 31 31 31 31 31 31 31 32 30 29 28 29 29 29 29 30 30 30 30 30 31 31 32 32 31 30 29 28 28
26 25 25 25 24 23 21 19 19 19 20 20 23 22 19 17 18 20 21 22 22 22 22 24 25 27 29 29 29 29 29 29 30 30 30 29 29 30 30 30 30 30 30 31 31 31 32 32 31 30 29 29 29 29 29 30 30 29 29 30 30 31 31 31 30 29 29 28 29
27 27 27 27 26 25 24 22 22 22 21 22 24 24 21 18 19 20 22 22 22 22 23 24 25 26 27 28 28 28 28 28 29 29 29 29 29 29 30 30 30 30 30 31 32 32 32 33 32 30 29 30 31 30 29 29 30 30 29 29 29 29 29 29 29 29 28 28 29
28 28 29 29 29 28 26 25 26 26 26 26 27 25 21 19 19 20 22 22 22 22 23 24 25 25 26 27 27 27 27 28 28 29 29 29 29 29 30 30 31 31 32 32 32 32 33 34 32 30 29 31 31 31 30 29 30 29 28 28 28 28 28 28 28 28 28 27 29
29 29 30 30 30 29 28 27 28 29 30 29 30 26 20 18 18 20 22 22 22 22 23 24 25 25 26 26 26 27 27 27 28 28 28 29 29 30 31 31 33 33 33 33 33 32 33 34 32 30 29 30 30 30 29 29 30 29 27 27 27 28 28 28 28 28 28 27 28
29 29 29 30 30 29 27 27 28 29 29 29 29 25 20 18 19 21 22 23 22 23 23 24 25 26 27 27 27 27 27 27 27 28 28 29 30 31 32 33 34 33 33 33 32 32 32 33 30 28 27 28 28 28 29 29 30 30 28 27 28 28 29 29 29 29 28 29 29
28 28 28 28 28 28 27 27 27 27 27 27 26 24 20 19 21 23 24 23 23 23 24 25 26 27 28 28 29 29 28 28 28 28 29 30 31 32 33 33 34 33 32 32 32 31 31 31 29 27 25 26 26 27 28 29 30 30 29 28 28 28 29 29 28 29 29 30 31
25 25 26 26 27 26 26 27 27 27 27 26 26 23 21 21 23 25 24 24 24 25 26 26 27 28 29 30 30 30 30 30 29 29 29 30 31 31 32 32 32 31 30 31 30 30 30 30 27 25 25 25 25 27 28 30 30 30 29 28 27 27 28 29 28 29 30 31 31
24 24 24 24 25 25 26 26 26 26 26 26 27 24 22 23 25 25 25 24 25 25 26 26 27 28 29 30 30 31 31 31 31 30 29 29 29 30 30 30 30 30 29 30 29 29 29 29 26 24 24 25 25 27 29 31 31 30 29 27 27 27 27 28 28 29 30 31 32
24 24 23 23 24 25 26 25 25 24 25 26 26 24 23 25 26 25 24 24 25 26 26 27 27 28 29 29 29 30 31 31 30 29 28 28 28 28 29 29 29 29 29 29 29 29 29 28 26 25 25 26 26 27 28 31 31 30 28 26 26 26 27 27 28 29 29 30 32
23 23 23 23 24 25 26 25 23 22 23 25 26 24 24 26 27 26 24 24 25 25 26 27 27 28 27 26 27 28 29 29 28 27 27 26 27 27 27 28 29 29 30 30 29 28 28 28 28 27 27 27 27 27 28 30 30 30 28 26 26 26 26 27 28 28 29 30 30
22 22 23 23 24 25 25 23 22 21 23 25 25 25 26 27 27 26 25 25 25 24 25 26 27 27 27 26 26 26 26 26 26 25 25 25 26 26 27 28 28 29 29 29 29 28 28 28 28 29 28 28 28 27 28 30 30 29 28 27 26 26 27 28 28 29 29 29 29
21 21 22 22 24 24 23 22 21 22 24 25 25 25 26 27 28 27 26 25 25 24 24 25 26 27 27 27 26 25 25 24 24 24 24 24 25 26 27 28 28 28 29 29 29 29 29 29 29 30 30 29 28 28 28 29 30 29 28 28 27 27 28 28 29 29 28 28 28
20 20 21 22 23 22 21 21 22 23 25 25 25 25 26 27 28 28 27 26 25 24 24 25 25 26 26 26 26 26 25 24 24 24 24 25 25 26 27 27 28 27 28 28 29 30 31 31 30 30 30 29 29 28 28 29 29 29 29 29 29 29 28 28 29 29 29 28 28
20 20 20 20 21 20 20 20 22 24 25 25 25 26 26 26 27 28 27 26 26 25 24 24 25 25 25 25 25 25 25 24 24 25 25 25 25 26 27 27 27 27 27 28 29 30 31 31 30 29 28 28 28 28 28 29 29 29 30 30 30 29 29 29 29 29 29 29 28
20 20 19 19 19 19 20 20 22 23 24 24 25 25 26 26 27 28 28 27 26 25 24 25 25 24 24 25 25 25 25 25 25 25 25 25 25 26 26 26 27 27 28 29 29 29 29 29 28 27 27 27 28 29 29 29 29 29 29 30 30 30 29 30 30 30 30 30 30
21 21 20 20 20 20 20 21 22 22 22 23 25 25 25 26 26 27 27 26 25 25 25 25 25 24 24 25 25 25 25 25 25 25 25 25 25 25 26 26 27 28 28 29 28 28 27 26 25 25 26 27 29 30 30 29 29 29 29 29 29 30 30 30 30 31 31 30 30
23 23 22 22 22 22 23 24 23 22 21 23 25 26 26 26 26 26 25 25 25 25 25 25 24 24 24 24 24 24 25 25 25 25 25 25 25 25 25 26 26 28 29 29 28 28 27 27 26 26 27 29 30 30 30 30 30 29 29 30 30 30 31 31 30 31 31 31 31
25 25 24 23 24 25 26 26 24 21 22 25 26 27 27 27 27 26 25 24 25 25 25 25 24 23 23 24 24 24 24 23 23 23 23 24 24 24 25 25 26 27 28 29 28 28 28 28 29 29 29 29 30 30 30 30 30 30 30 30 31 31 31 31 31 31 31 32 31
28 28 26 25 26 27 27 25 23 22 24 26 27 27 27 27 26 26 25 25 26 26 26 25 24 23 23 23 23 23 22 20 19 19 19 20 21 22 22 23 24 25 26 28 28 29 29 30 31 31 30 30 30 30 30 30 31 31 30 30 31 31 32 32 32 31 31 31 32
29 29 28 27 26 26 25 23 22 24 26 26 26 26 25 24 23 23 24 25 26 26 25 23 20 19 18 18 19 19 18 16 15 15 16 17 18 19 20 20 20 21 23 25 26 27 28 29 30 31 31 30 30 30 30 30 30 30 31 31 31 32 33 33 33 32 32 32 32
28 28 27 25 26 26 24 22 23 25 26 25 24 24 23 22 20 19 20 20 21 21 20 18 15 14 14 15 16 16 15 14 13 13 14 15 15 17 18 19 18 18 19 21 23 23 23 24 26 27 29 29 28 28 28 28 29 30 30 30 31 31 32 33 33 33 33 33 33
26 25 24 25 26 26 24 22 23 24 24 22 22 22 22 20 18 17 17 17 18 18 17 16 14 14 15 16 17 16 15 13 12 12 13 14 14 15 16 17 16 16 17 19 20 21 20 19 20 22 24 25 26 26 26 27 28 29 30 30 30 30 31 32 32 32 32 33 33
24 24 24 25 26 25 23 22 21 21 21 20 20 21 22 22 20 19 19 20 20 20 19 18 17 17 18 19 19 19 17 15 14 13 13 13 13 13 12 13 13 13 14 16 17 17 17 17 17 18 20 22 24 24 24 24 26 28 29 30 30 29 29 29 30 31 32 32 33
24 25 25 25 25 24 23 22 21 21 21 21 22 24 25 25 24 24 24 24 24 23 22 21 20 20 20 21 21 20 19 17 16 15 14 13 12 11 11 10 10 10 11 12 13 14 15 16 17 18 19 20 21 21 21 22 24 26 28 29 29 29 28 28 28 30 31 31 32
24 24 24 23 23 23 22 23 24 24 25 25 26 27 28 27 27 26 26 26 25 25 24 23 22 22 22 22 22 21 19 18 17 16 14 13 11 11 10 9 8 7 7 8 9 10 12 14 16 17 18 18 18 18 18 19 21 22 24 25 27 27 26 26 27 27 28 28 29
23 22 21 22 22 24 25 27 28 28 28 27 27 28 28 29 28 28 26 26 25 25 24 23 23 23 22 22 21 20 19 19 18 16 14 12 11 11 10 9 7 5 4 4 5 6 8 11 13 15 16 16 15 14 14 14 15 15 15 16 18 19 20 21 21 22 22 23 24
20 20 22 24 26 27 28 29 29 29 29 28 28 28 29 29 29 27 25 25 25 24 24 23 23 22 22 22 21 20 19 18 17 16 14 13 12 10 9 8 8 7 5 4 3 4 5 8 11 13 14 15 15 14 13 13 13 12 11 10 11 12 13 14 15 16 17 19 20
22 24 26 28 28 28 28 28 28 29 29 29 28 29 29 29 28 26 25 25 25 24 24 23 23 22 22 22 21 20 19 18 16 15 14 13 13 12 11 10 10 9 7 5 3 2 3 6 9 11 13 15 15 14 14 13 12 11 10 9 9 9 9 10 9 10 13 16 18
26 27 29 30 29 29 28 28 28 29 29 29 29 30 30 29 28 27 26 26 26 25 25 24 23 23 22 21 21 20 19 18 16 15 15 15 15 15 14 13 13 11 9 6 4 2 2 4 7 10 12 14 15 14 14 13 12 11 11 10 10 9 9 9 8 9 10 13 15
28 29 30 30 30 29 28 28 29 29 30 31 31 31 30 29 28 27 26 26 26 25 24 23 23 23 23 22 21 20 19 18 17 17 16 16 17 17 16 15 15 13 10 8 6 5 4 4 6 9 11 13 13 14 14 14 13 13 13 12 12 11 10 10 10 10 10 11 12
30 30 31 30 29 28 28 28 29 30 31 31 31 30 29 28 27 27 26 26 25 25 25 25 25 25 24 23 22 21 21 20 19 19 18 18 17 17 17 17 16 14 12 10 9 8 7 7 8 9 11 12 13 14 15 15 15 15 15 15 14 13 13 13 13 13 13 13 14
31 31 31 30 29 28 28 29 30 31 31 30 30 29 29 28 28 27 26 25 25 25 25 25 25 25 24 23 23 23 22 21 20 20 19 19 18 18 19 19 19 17 15 14 13 12 11 10 10 10 12 14 15 17 18 18 17 17 17 17 17 16 16 15 15 15 15 16 16
31 31 30 29 28 28 28 29 29 30 30 29 29 29 28 28 27 27 26 25 25 25 25 25 25 25 24 24 24 23 23 23 22 21 21 20 20 21 22 22 20 19 18 17 16 15 14 13 13 13 14 16 18 20 20 21 20 20 20 20 20 19 18 17 17 17 17 17 18
29 29 29 28 27 27 27 28 29 29 29 28 28 27 27 27 26 25 25 25 26 26 26 25 25 25 25 25 25 24 24 23 23 22 22 22 22 23 23 22 21 20 19 19 19 18 16 15 14 14 15 18 20 21 22 23 23 23 23 23 22 21 20 19 18 18 18 18 18
27 27 27 27 26 26 26 27 28 28 28 27 27 26 26 26 25 24 23 24 26 26 26 26 26 26 26 26 25 25 24 23 23 23 23 23 23 23 23 23 22 21 20 20 19 19 17 16 15 15 15 18 21 22 24 25 25 25 25 25 24 23 22 20 19 18 18 17 17
25 26 26 26 26 26 26 27 27 27 27 26 26 26 26 25 24 23 23 24 25 27 27 27 27 27 26 26 26 25 24 24 24 24 23 23 23 23 23 23 22 21 20 19 19 18 18 17 16 15 16 18 21 23 24 25 25 25 25 25 25 25 24 22 21 20 18 17 16
25 26 26 26 26 27 27 27 27 27 26 26 26 25 25 25 24 24 24 24 25 27 27 27 26 26 26 27 27 26 26 25 25 24 24 24 23 23 23 23 22 21 19 18 18 18 17 16 16 15 16 18 21 22 24 24 25 25 25 25 25 25 25 24 23 22 20 18 16
25 26 26 27 27 27 27 27 26 26 26 26 26 26 26 26 25 25 25 26 26 27 27 27 26 26 26 27 27 27 26 26 25 25 25 24 24 23 23 23 22 20 19 17 17 16 16 16 16 16 16 18 20 22 23 24 25 25 25 24 24 25 25 24 24 23 22 20 18
25 26 26 27 27 27 27 27 26 26 25 26 25 25 25 25 25 25 26 26 26 26 26 26 26 26 27 27 27 27 27 27 26 25 25 24 24 24 23 23 22 20 19 17 16 16 16 16 16 16 17 18 20 21 22 23 25 25 25 24 24 24 24 24 24 24 24 23 21
Wind_Direction
171 170 171 172 172 174 180 186 184 176 171 173 188 194 183 158 151 148 147 146 145 146 148 151 153 155 159 163 165 166 167 168 170 171 173 174 175 176 177 179 179 180 182 183 185 186 188 190 190 190 191 192 193 194 195 195 194 194 194 193 192 191 189 186 186 185 184 183 183
169 169 169 169 169 171 176 183 181 174 169 174 190 196 187 163 154 151 152 153 153 152 152 154 156 158 160 164 166 167 168 170 172 173 174 176 177 179 180 182 183 184 185 187 188 188 190 192 192 192 193 194 195 195 196 197 197 196 195 194 192 191 189 186 185 186 186 187 186
169 168 167 167 166 167 171 177 178 175 173 178 190 195 189 171 158 154 155 156 157 157 156 158 160 161 163 165 168 170 172 173 175 177 178 179 181 183 185 186 187 187 188 190 190 191 192 193 194 194 195 195 195 195 196 197 198 197 195 193 191 189 187 187 187 188 190 191 191
169 168 167 167 167 167 169 173 174 176 180 185 192 193 186 172 161 156 155 156 157 159 160 162 163 164 166 167 169 172 174 177 179 180 182 184 186 188 190 191 190 190 191 192 192 192 193 194 194 194 195 195 194 194 195 196 197 197 195 192 190 187 187 188 190 191 193 194 195
170 170 170 171 170 170 170 171 171 175 181 186 190 189 182 170 160 155 155 156 158 162 164 165 165 167 168 169 170 172 175 178 180 182 184 186 188 190 192 192 192 191 192 192 192 192 192 193 192 192 193 193 193 193 194 195 196 196 194 192 189 188 188 190 192 195 196 196 197
170 172 174 174 174 173 173 172 171 174 179 183 184 185 182 167 159 157 158 158 160 164 167 167 167 168 169 170 171 173 175 177 179 181 183 185 187 189 191 192 192 191 190 190 190 191 191 190 189 190 190 191 191 192 194 196 196 195 193 191 190 190 191 192 195 197 198 198 199
172 173 175 176 176 176 175 175 174 175 177 181 184 187 184 170 164 162 162 161 161 163 166 168 169 169 171 171 173 174 175 176 177 179 181 182 184 185 187 188 188 187 187 187 188 189 190 189 187 186 187 188 189 192 195 197 197 195 193 192 192 193 194 196 198 199 200 201 201
174 174 176 177 177 177 178 178 178 179 180 183 189 193 187 173 167 166 164 162 162 164 166 168 169 170 171 173 174 175 175 174 175 176 178 179 179 180 182 183 183 183 184 186 187 188 188 187 186 185 186 187 189 193 197 200 199 197 195 193 193 195 197 199 201 202 202 203 202
174 175 176 177 177 178 179 181 183 184 186 189 198 199 189 173 168 166 165 164 164 166 167 167 167 169 170 171 173 174 174 174 174 174 175 176 176 177 178 180 181 182 184 186 187 188 188 187 186 186 187 189 192 196 200 202 200 198 196 193 192 195 198 201 203 204 204 204 204
175 175 175 175 177 179 182 184 187 189 191 196 204 201 186 171 167 166 165 165 165 166 166 167 166 166 166 167 168 170 172 173 173 173 174 174 176 177 179 181 182 183 185 187 188 189 189 189 189 190 192 194 196 199 202 202 200 198 195 193 193 195 200 203 205 206 206 206 205
176 174 174 174 177 181 183 184 186 189 194 199 205 198 181 169 166 166 166 165 165 166 167 168 168 168 167 166 166 167 169 171 173 174 175 176 178 180 182 184 185 186 187 189 190 191 192 193 194 195 197 198 199 200 201 201 199 197 195 194 195 197 200 204 206 206 206 206 205
176 174 173 175 179 180 180 180 181 185 192 199 200 189 174 168 167 167 166 166 165 166 167 169 170 172 172 170 168 168 169 172 174 177 178 180 182 184 186 187 187 188 189 191 192 194 195 197 198 199 200 200 200 199 199 199 197 196 196 196 198 200 203 205 206 206 205 205 205
177 173 173 176 178 178 175 173 174 182 192 197 191 178 169 168 169 169 168 167 166 165 165 168 172 174 176 176 175 174 174 176 178 181 183 185 187 188 189 189 189 189 191 193 196 198 199 201 202 202 201 200 199 198 198 197 196 196 197 199 201 203 205 206 206 206 205 205 205
177 174 174 176 176 174 169 166 170 182 192 192 180 170 167 168 170 170 169 167 165 163 163 167 171 174 177 179 181 181 181 181 183 185 187 188 190 191 191 191 191 191 193 196 200 203 204 204 204 202 200 199 198 198 198 197 197 197 199 201 204 206 207 207 206 206 205 204 205
177 176 176 175 172 168 163 162 170 183 190 184 172 166 166 168 169 170 168 166 164 162 163 165 168 172 176 180 183 185 185 185 186 187 188 189 191 192 192 192 193 194 197 200 204 206 207 207 205 202 198 196 196 197 199 199 199 200 202 204 206 207 208 207 206 205 204 204 204
177 177 176 172 167 162 161 165 175 184 185 175 166 164 165 167 168 168 166 164 162 162 163 165 168 171 175 179 184 187 187 186 187 187 188 189 191 193 194 196 198 200 202 203 204 205 205 204 202 199 196 195 196 198 200 202 202 204 205 207 209 209 209 208 206 204 204 204 203
175 176 174 169 163 162 165 172 180 183 177 166 162 162 163 164 164 165 164 163 162 161 163 167 170 172 175 179 184 187 187 187 187 189 190 191 193 195 198 200 203 205 206 205 203 201 200 199 198 198 198 199 200 202 203 204 206 207 209 210 210 210 210 208 206 205 204 204 204
171 173 172 166 162 163 170 179 183 179 169 159 157 158 159 159 159 159 160 161 160 161 163 167 170 172 175 178 182 186 187 188 189 192 194 196 198 199 201 204 207 208 208 206 203 200 198 197 199 201 203 204 205 206 207 207 208 209 210 212 212 211 211 209 208 206 205 205 205
167 169 169 165 162 164 170 178 181 175 163 154 153 154 153 153 152 152 153 155 157 160 162 164 166 169 173 177 180 184 187 189 192 195 198 200 201 202 203 205 208 210 210 208 206 204 203 203 204 206 207 208 209 210 210 210 210 211 212 213 212 212 211 211 210 208 207 207 207
163 166 167 166 165 168 173 178 177 169 157 152 151 149 147 146 146 146 146 147 151 155 158 158 159 162 167 172 176 179 183 187 190 194 197 200 201 202 203 205 207 208 210 211 211 211 211 211 211 211 211 211 212 212 212 212 212 213 213 213 213 213 213 213 212 211 210 210 210
160 164 167 169 171 173 176 176 170 159 153 152 151 148 144 141 139 139 140 143 147 151 154 154 154 156 161 166 170 172 174 178 182 186 190 193 195 198 201 205 206 207 209 211 214 215 217 217 216 215 214 214 213 213 213 212 212 212 212 212 213 214 214 215 214 214 213 213 213
159 164 168 171 172 173 171 166 156 150 149 150 149 148 145 140 135 134 135 139 143 146 147 148 149 153 158 163 167 169 170 172 173 176 180 185 189 193 196 199 202 204 206 209 212 215 217 218 218 217 215 214 214 213 212 211 209 209 209 211 213 214 215 216 216 216 216 216 216
160 165 168 169 169 167 163 155 145 141 142 143 144 145 145 142 136 132 132 135 137 138 139 140 141 145 152 158 163 168 171 173 173 174 176 178 182 188 193 196 197 199 202 205 208 211 214 216 217 217 216 214 213 212 211 209 207 207 207 209 211 213 214 215 216 216 217 217 218
159 162 163 162 162 161 158 150 141 136 135 135 136 139 141 141 135 130 127 127 126 127 130 134 135 138 143 147 153 159 163 163 162 164 167 170 175 183 189 192 193 196 200 205 208 211 214 217 219 218 216 214 213 212 211 209 208 207 207 207 209 210 212 213 214 215 216 217 218
155 156 156 155 156 157 154 148 140 134 131 129 128 128 129 128 125 123 121 120 120 121 122 124 124 128 133 136 141 146 148 145 144 146 150 155 162 168 173 180 185 192 201 208 213 217 220 223 223 221 218 215 213 212 211 211 210 209 208 207 206 207 209 211 213 215 216 217 218
151 151 151 150 150 148 144 139 133 127 122 117 116 116 116 116 116 114 113 112 113 115 117 117 119 122 125 127 131 134 135 135 135 135 135 137 142 146 151 161 173 189 204 215 219 223 227 228 228 224 220 216 215 216 219 220 219 215 212 209 207 206 207 209 212 214 216 217 218
147 147 146 142 137 132 126 120 115 112 109 107 107 108 109 109 110 109 108 107 109 111 113 114 116 118 119 121 122 123 124 125 126 126 125 127 130 131 132 136 144 167 197 216 220 222 225 228 228 226 222 220 220 223 226 227 223 217 213 211 210 209 209 210 212 213 214 215 216
143 141 134 125 117 110 105 103 102 102 102 103 102 102 103 105 105 105 105 105 107 107 108 109 111 113 114 113 113 114 115 115 115 117 119 122 120 119 118 117 117 124 151 195 211 215 217 219 222 222 218 214 211 210 209 206 201 197 196 198 201 202 203 205 207 208 209 210 212
129 122 113 105 100 97 96 96 97 97 99 100 99 98 99 101 102 103 103 103 103 103 103 104 106 108 107 105 106 107 107 106 106 109 112 114 111 108 107 109 112 111 113 127 164 191 198 199 203 206 207 205 201 196 190 183 177 172 170 172 175 183 191 196 199 201 203 205 209
108 103 99 95 93 92 91 92 93 95 96 96 95 95 96 97 99 100 100 99 98 99 101 104 104 102 100 100 101 101 100 99 100 102 104 104 102 99 100 104 110 112 112 120 145 181 191 186 186 191 196 198 193 185 176 170 165 162 160 159 162 168 175 181 187 196 202 203 207
98 96 93 91 90 89 89 90 91 93 94 94 94 93 93 94 95 95 95 96 96 98 102 104 103 100 98 97 97 96 96 96 96 97 98 98 98 99 100 104 105 106 108 112 125 152 179 181 180 183 187 188 181 171 162 155 149 145 144 144 146 149 154 161 165 176 187 192 198
93 92 91 90 89 89 89 89 90 91 92 92 92 92 91 91 91 92 93 95 96 97 99 99 99 98 96 95 95 95 95 95 95 96 97 98 99 99 100 101 101 101 104 112 123 138 153 166 171 175 178 176 166 155 147 140 133 130 128 125 129 133 138 144 145 147 152 161 169
89 89 89 90 89 89 90 90 90 91 91 90 90 91 91 91 91 92 92 93 94 95 95 95 95 94 93 93 94 94 94 94 94 96 98 100 101 101 100 99 97 99 105 114 123 131 139 146 153 159 161 158 148 139 134 129 124 121 118 114 116 117 119 124 127 129 132 137 141
89 89 89 90 91 91 91 91 92 92 91 89 89 90 91 91 91 90 90 92 94 95 95 95 94 93 93 93 94 94 94 94 95 97 99 101 103 102 99 96 96 100 107 113 118 122 126 131 136 142 143 138 130 125 122 119 116 112 109 106 105 106 109 113 116 120 124 127 130
91 91 91 91 92 92 92 92 92 91 90 88 87 88 89 90 90 90 91 94 96 96 95 94 95 95 95 94 95 95 94 95 96 97 99 101 103 101 98 96 98 102 107 110 113 116 118 121 126 130 130 125 119 116 113 111 109 105 103 101 99 99 101 104 107 112 117 122 125
93 93 92 92 91 91 91 90 90 90 88 87 87 88 89 89 90 92 94 97 98 96 94 93 94 94 93 91 92 93 94 95 96 97 99 101 101 99 97 97 99 102 106 108 111 113 114 117 120 123 123 119 115 112 109 106 103 101 99 96 94 93 95 97 100 105 111 116 121
94 94 94 92 91 90 90 91 91 90 88 88 89 90 90 91 91 93 96 99 97 95 93 92 91 91 90 90 90 91 94 97 97 97 97 98 98 97 96 96 97 100 104 107 110 111 113 114 117 119 118 116 113 110 106 103 100 98 95 92 90 89 90 91 93 97 102 108 114
93 94 95 94 92 91 91 92 91 90 90 91 91 92 92 92 92 93 95 98 96 94 93 92 90 90 91 93 93 93 94 96 97 96 95 94 95 96 95 94 94 97 102 106 109 111 112 113 114 115 116 115 113 110 106 102 99 95 92 90 88 87 87 87 87 89 91 96 105
91 93 95 95 94 94 93 92 91 92 93 93 93 93 93 93 92 94 96 98 99 97 95 93 91 92 94 96 95 94 93 93 94 93 92 91 93 95 96 95 94 96 100 104 107 110 111 112 113 114 114 114 113 111 107 103 98 95 92 90 88 86 85 85 84 84 85 89 95
91 93 94 95 95 95 94 93 93 93 94 95 94 93 93 94 95 97 99 100 101 100 98 96 96 96 97 98 96 94 92 90 90 90 90 90 92 94 95 95 95 96 98 102 105 108 110 112 113 114 114 113 112 111 108 105 100 95 91 89 88 85 84 83 83 83 83 85 88
92 93 93 94 95 95 95 95 94 95 95 95 94 95 96 98 99 100 101 101 101 100 99 99 99 99 98 98 96 93 91 89 88 88 89 90 91 91 93 94 94 95 96 99 104 107 110 112 113 114 115 114 113 112 110 107 100 95 91 90 89 87 84 83 82 82 82 83 84